This is the latest recevied weather packets stored in our database for station/object K9APR. If no packets are shown the sender has not sent any weather packets the latest 1 day(s).
| Time | Temp. | Humidity | Pressure | Rain* | Wind** | Luminosity | Snow |
|---|---|---|---|---|---|---|---|
| 1777992982 | 17.78° C | 77% | 1008.2 hPa | 0 mm | 2.68 m/s, 256° | - | - |
| 1777992442 | 17.22° C | 78% | 1008.1 hPa | 0 mm | 2.24 m/s, 232° | - | - |
| 1777991901 | 17.22° C | 79% | 1007.9 hPa | 0 mm | 1.34 m/s, 246° | - | - |
| 1777991361 | 17.22° C | 79% | 1008.1 hPa | 0 mm | 3.13 m/s, 226° | - | - |
| 1777990821 | 16.67° C | 80% | 1008 hPa | 0 mm | 2.24 m/s, 220° | - | - |
| 1777990281 | 16.67° C | 80% | 1008.1 hPa | 0 mm | 2.24 m/s, 206° | - | - |
| 1777989743 | 16.11° C | 81% | 1007.9 hPa | 0 mm | 2.24 m/s, 220° | - | - |
| 1777989200 | 15.56° C | 82% | 1007.9 hPa | 0 mm | 1.34 m/s, 228° | - | - |
| 1777988663 | 15.56° C | 83% | 1008 hPa | 0 mm | 3.13 m/s, 206° | - | - |
| 1777988121 | 15° C | 84% | 1007.8 hPa | 0 mm | 2.24 m/s, 225° | - | - |
| 1777987583 | 14.44° C | 85% | 1007.9 hPa | 0 mm | 2.68 m/s, 209° | - | - |
| 1777987042 | 14.44° C | 85% | 1007.5 hPa | 0 mm | 2.24 m/s, 210° | - | - |
| 1777984881 | 13.89° C | 87% | 1007.4 hPa | 0 mm | 3.13 m/s, 203° | - | - |
| 1777984341 | 13.33° C | 87% | 1007.2 hPa | 0 mm | 2.24 m/s, 158° | - | - |
| 1777983802 | 13.33° C | 87% | 1007.2 hPa | 0 mm | 0.89 m/s, 178° | - | - |
| 1777983262 | 13.33° C | 88% | 1007 hPa | 0 mm | 1.34 m/s, 181° | - | - |
| 1777982720 | 12.78° C | 89% | 1007.1 hPa | 0 mm | 2.24 m/s, 170° | - | - |
| 1777982180 | 12.78° C | 89% | 1007.2 hPa | 0 mm | 1.34 m/s, 149° | - | - |
| 1777981641 | 12.78° C | 89% | 1007.2 hPa | 0 mm | 0.45 m/s, 150° | - | - |
| 1777981100 | 12.78° C | 89% | 1007.3 hPa | 0 mm | 0.89 m/s, 213° | - | - |
| 1777980560 | 12.78° C | 88% | 1007.2 hPa | 0 mm | 0.89 m/s, 200° | - | - |
| 1777980026 | 12.78° C | 88% | 1007.1 hPa | 0 mm | 0.89 m/s, 172° | - | - |
| 1777979484 | 12.78° C | 88% | 1007 hPa | 0 mm | 0.45 m/s, 228° | - | - |
| 1777978943 | 12.78° C | 88% | 1006.6 hPa | 0 mm | 0.89 m/s, 139° | - | - |
| 1777978400 | 12.78° C | 88% | 1007 hPa | 0.25 mm | 0.89 m/s, 285° | - | - |
* Rain latest hour (hover to see other rain measurements)
** Current wind speed in m/s (hover to see current wind gust speed)